SCP
0 0 0 0 0 0 0 0 0 0 0 0 0 0 0 0 0 0 0 0 0 0 0 0 0 0 0 0 0 0 0 0 0 0 0 0 0 0 0 0 0 0 0
0 0 0 0 0 0 0 0 0 0 0 0 0 0 0 0 0 0 0 0 0 0 0 0 0 0 0 0 0 0 0 0 0 0 0 0 0 0 0 0 0 0 0
0 0 0 0 0 0 0 0 0 0 0 0 0 0 0 0 0 0 0 0 0 0 0 0 0 0 0 0 0 0 0 0 0 0 0 0 0 0 0 0 0 0 0
0 0 0 0 0 0 0 0 0 0 0 0 0 0 0 0 0 0 0 0 0 0 0 0 0 0 0 0 0 0 0 0 0 0 0 0 0 0 0 0 0 0 0
0 0 0 0 0 0 0 0 0 0 0 0 0 0 0 0 0 0 0 0 0 0 0 0 0 0 0 0 0 0 0 0 0 0 0 0 0 0 0 0 0 0 0
0 0 0 0 0 0 0 0 0 0 0 0 0 0 0 0 0 0 0 0 0 0 0 0 0 0 0 0 0 0 0 0 0 0 0 0 0 0 0 0 0 0 0
0 0 0 0 0 0 0 0 0 0 0 0 0 0 0 0 0 0 0 0 0 0 0 0 0 0 0 0 0 0 0 0 0 0 0 0 0 0 0 0 0 0 0
0 0 0 0 0 0 0 0 0 0 0 0 0 0 0 0 0 0 0 0 0 0 0 0 0 0 0 0 0 0 0 0 0 0 0 0 0 0 0 0 0 0 0
0 0 0 0 0 0 0 0 0 0 0 0 0 0 0 0 0 0 0 0 0 0 0 0 0 0 0 0 0 0 0 0 0 0 0 0 0 0 0 0 0 0 0
0 0 0 0 0 0 0 0 0 0 0 0 0 0 0 0 0 0 0 0 0 0 0 0 0 0 0 0 0 0 0 0 0 0 0 0 0 0 0 0 0 0 0
0 0 0 0 0 0 0 0 0 0 0 0 0 0 0 0 0 0 0 0 0 0 0 0 0 0 0 0 0 0 0 0 0 0 0 0 0 0 0 0 0 0 0
0 0 0 0 0 0 0 0 0 0 0 0 0 0 0 0 0 0 0 0 0 0 0 0 0 0 0 0 0 0 0 0 0 0 0 0 0 0 0 0 0 0 0
0 0 0 0 0 0 0 0 0 0 0 0 0 0 0 0 0 0 0 0 0 0 0 0 0 0 0 0 0 0 0 0 0 0 0 0 0 0 0 0 0 0 0
0 0 0 0 0 0 0 0 0 0 0 0 0 0 0 0 0 0 0 0 0 0 0 0 0 0 0 0 0 0 0 0 0 0 0 0 0 0 0 0 0 0 0
0 0 0 0 0 0 0 0 0 0 0 0 0 0 0 0 0 0 0 0 0 0 0 0 0 0 0 0 0 0 0 0 0 0 0 0 0 0 0 0 0 0 0
0 0 0 0 0 0 0 0 0 0 0 0 0 0 0 0 0 0 0 0 0 0 0 0 0 0 0 0 0 0 0 0 0 0 0 0 0 0 0 0 0 0 0
0 0 0 0 0 0 0 0 0 0 0 0 0 0 0 0 0 0 0 0 0 0 0 0 0 0 0 0 0 0 0 0 0 0 0 0 0 0 0 0 0 0 0
0 0 0 0 0 0 0 0 0 0 0 0 0 0 0 0 0 0 0 0 0 0 0 0 0 0 0 0 0 0 0 0 0 0 0 0 0 0 0 0 0 0 0
0 0 0 0 0 0 0 0 0 0 0 0 0 0 0 0 0 0 0 0 0 0 0 0 0 0 0 0 0 0 0 0 0 0 0 0 0 0 0 0 0 0 0
0 0 0 0 0 0 0 0 0 0 0 0 0 0 0 0 0 0 0 0 0 0 0 0 0 0 0 0 0 0 0 0 0 0 0 0 0 0 0 0 0 0 0
0 0 0 0 0 0 0 0 0 0 0 0 0 0 0 0 0 0 0 0 0 0 0 0 0 0 0 0 0 0 0 0 0 0 0 0 0 0 0 0 0 0 0
0 0 0 0 0 0 0 0 0 0 0 0 0 0 0 0 0 0 0 0 0 0 0 0 0 0 0 0 0 0 0 0 0 0 0 0 0 0 0 0 0 0 0
0 0 0 0 0 0 0 0 0 0 0 0 0 0 0 0 0 0 0 0 0 0 0 0 0 0 0 0 0 0 0 0 0 0 0 0 0 0 0 0 0 0 0
0 0 0 0 0 0 0 0 0 0 0 0 0 0 0 0 0 0 0 0 0 0 0 0 0 0 0 0 0 0 0 0 0 0 0 0 0 0 0 0 0 0 0
0 0 0 0 0 0 0 0 0 0 0 0 0 0 0 0 0 0 0 0 0 0 0 0 0 0 0 0 0 0 0 0 0 0 0 0 0 0 0 0 0 0 0
0 0 0 0 0 0 0 0 0 0 0 0 0 0 0 0 0 0 0 0 0 0 0 0 0 0 0 0 0 0 0 0 0 0 0 0 0 0 0 0 0 0 0
Wind_Speed
3 3 3 2 2 2 2 2 2 2 1 1 2 2 2 2 2 2 2 2 3 3 2 3 3 2 2 2 2 2 2 2 4 3 0 0 1 1 1 1 1 2 2
3 3 3 3 2 2 2 2 2 2 2 2 1 1 2 2 2 3 3 3 3 3 3 2 3 2 2 2 2 2 2 2 3 4 2 1 2 2 1 2 2 2 3
2 2 2 3 3 3 3 3 3 3 3 3 2 2 2 2 2 3 3 3 3 3 3 3 3 2 3 2 2 3 2 2 1 2 3 2 1 1 1 2 3 2 3
3 2 3 3 3 3 3 3 3 3 3 3 3 2 2 3 3 3 3 3 3 3 3 3 3 3 4 3 3 3 2 2 1 2 2 2 2 1 1 2 3 2 3
3 3 3 3 4 3 3 3 3 3 3 3 3 3 3 3 2 2 2 3 3 3 2 2 3 3 3 3 3 3 2 2 2 2 2 2 2 1 2 2 3 3 3
3 3 3 3 3 3 3 3 3 3 3 3 3 3 3 3 4 5 4 3 3 2 3 3 3 2 3 4 4 4 4 4 4 3 3 4 4 3 2 2 2 2 4
3 4 4 4 4 4 4 4 4 4 4 4 4 3 4 4 6 6 5 4 3 3 3 3 3 3 2 2 3 3 4 5 5 4 4 4 3 3 2 3 3 3 4
4 4 4 4 4 4 4 4 4 4 4 4 4 4 4 4 6 6 5 3 3 3 3 3 3 3 3 3 2 2 2 3 3 2 3 3 3 2 3 3 3 3 2
5 5 5 5 5 5 5 5 4 4 4 4 4 5 4 5 6 6 5 3 2 3 3 2 3 3 3 3 3 3 2 2 3 2 3 3 3 2 1 0 1 1 3
5 6 6 5 5 5 5 5 4 4 5 5 5 4 4 4 6 7 6 2 3 3 3 2 3 3 4 4 3 3 3 2 1 1 1 2 1 1 1 1 2 2 2
5 6 6 6 5 5 5 5 4 4 5 5 5 5 4 4 5 6 7 3 3 3 3 3 2 4 5 5 4 3 4 2 1 1 1 1 1 1 1 1 1 1 2
5 5 6 6 5 4 5 5 4 4 4 4 4 5 4 4 4 5 7 6 5 4 3 3 3 4 5 5 3 3 2 0 0 1 1 1 1 1 1 1 2 2 2
5 5 5 5 5 5 4 4 4 4 3 4 4 4 4 3 4 6 6 7 7 4 3 5 5 4 4 3 2 1 0 1 1 1 1 2 1 1 1 1 2 2 3
4 5 5 4 5 5 4 4 3 3 4 4 4 4 4 4 3 3 3 3 4 3 3 2 3 3 2 2 1 1 0 0 1 1 1 1 0 0 0 1 1 1 1
4 4 5 4 4 4 4 4 4 3 4 4 4 4 4 5 5 7 5 3 3 3 2 2 2 1 1 1 1 1 1 0 0 0 1 1 0 0 1 1 1 1 1
4 4 3 3 3 3 4 4 6 6 8 7 7 6 5 7 9 9 8 7 6 4 2 1 1 1 1 1 1 1 1 1 1 0 0 1 1 1 0 1 1 0 1
3 4 3 3 3 3 3 4 5 6 7 7 8 8 8 9 8 8 7 6 5 3 1 1 1 1 1 1 1 1 1 1 1 1 1 1 1 1 1 0 0 0 1
3 4 3 3 3 3 3 3 3 4 5 5 6 8 10 9 8 7 7 4 2 2 1 1 1 1 1 1 1 1 1 1 1 1 1 1 1 1 1 1 1 1 1
3 3 3 3 3 3 3 3 3 3 3 4 4 6 7 8 7 7 5 2 1 2 2 2 1 1 1 1 1 1 1 1 1 1 1 1 1 1 1 1 1 1 1
3 4 3 3 3 3 2 2 3 3 3 3 4 4 4 4 3 4 3 2 1 2 2 2 2 2 1 1 1 1 1 1 1 1 1 1 1 1 2 2 2 2 2
2 3 3 3 2 2 2 2 3 3 3 3 4 5 6 3 3 4 3 2 2 2 2 2 2 2 1 1 1 1 2 2 1 1 1 1 1 1 1 2 2 2 1
2 2 2 2 2 2 2 2 2 3 3 4 4 5 6 3 3 3 3 3 3 2 2 2 2 2 2 1 1 2 2 2 2 2 2 2 1 2 2 1 1 1 1
2 2 2 2 2 3 3 2 2 3 3 3 4 4 3 3 3 3 4 3 3 3 2 2 2 2 2 2 2 2 3 3 2 2 2 2 2 2 2 2 2 2 2
2 2 2 2 2 2 2 3 3 3 3 3 3 3 3 3 3 4 4 3 3 3 3 2 2 3 4 3 2 2 2 3 2 2 3 3 3 2 2 2 2 3 2
2 2 2 2 2 2 3 3 3 3 3 3 3 3 3 3 4 4 4 4 4 4 4 3 3 3 4 5 4 4 4 5 4 2 2 2 3 3 3 3 3 2 2
2 2 2 2 2 2 3 3 3 3 3 3 3 3 3 3 4 4 4 4 4 4 4 3 4 4 5 4 5 6 6 6 5 4 3 3 3 3 3 3 3 2 2
Wind_Direction
11 7 6 0 9 4 354 338 328 319 303 276 268 267 253 242 237 232 238 246 247 256 260 248 250 257 249 246 246 238 234 227 254 275 317 186 208 267 292 302 281 271 271
8 10 5 359 6 4 352 345 340 332 330 307 280 278 281 271 253 240 247 249 246 250 255 257 263 262 256 256 247 248 246 238 240 263 276 250 238 226 263 286 295 292 286
3 11 9 3 5 360 351 347 346 344 339 333 319 294 281 275 267 258 251 249 252 251 251 250 257 255 253 250 244 248 249 260 257 252 267 280 271 257 275 285 289 288 291
1 10 5 358 352 346 344 344 339 338 335 330 326 310 291 279 273 271 268 263 259 257 253 250 253 243 248 249 242 241 243 250 260 250 267 274 278 274 244 268 285 277 282
2 4 353 352 353 348 350 346 341 337 334 331 322 318 310 295 286 283 276 268 261 267 270 263 264 258 254 254 255 237 229 234 234 236 251 268 265 259 255 261 277 287 278
353 345 344 353 351 342 340 342 340 335 331 329 321 314 308 301 301 296 288 278 268 262 273 282 278 262 255 261 259 247 234 230 233 236 248 251 263 266 271 267 278 292 285
350 347 349 349 344 339 338 344 336 325 326 323 316 310 302 301 307 308 306 294 277 263 261 270 282 284 269 270 279 278 262 252 239 236 244 253 258 254 249 263 267 269 271
352 350 346 342 336 333 334 332 324 321 320 315 312 307 299 302 311 314 316 304 288 277 267 257 261 274 275 275 270 267 269 278 272 263 249 256 252 236 230 243 256 280 291
348 342 338 336 332 330 328 324 321 321 320 317 314 311 306 307 316 317 316 300 292 291 287 278 267 267 269 271 267 264 278 298 314 315 310 307 295 287 292 282 248 272 282
339 336 335 335 332 328 324 322 322 321 318 319 317 314 309 307 316 318 314 299 290 290 292 287 271 268 268 263 249 242 249 271 292 337 341 339 319 277 299 232 227 246 278
335 337 339 340 336 330 327 325 325 323 321 320 319 319 316 312 316 321 320 309 290 289 286 283 277 273 272 267 259 250 249 263 251 242 292 295 309 326 329 335 323 272 263
336 339 339 337 334 332 329 326 328 326 326 324 323 321 322 321 322 323 320 312 309 296 291 292 286 284 282 282 275 269 259 292 176 186 225 254 267 291 315 337 346 344 330
338 334 331 333 333 332 329 329 332 333 327 322 320 315 318 323 323 326 321 318 318 310 295 294 301 307 307 305 305 330 38 153 187 205 227 252 264 268 322 351 11 14 6
328 326 326 332 334 335 333 330 331 328 319 315 315 312 313 314 315 323 322 321 319 314 313 318 324 330 336 353 355 358 356 249 234 239 252 268 254 214 303 338 340 354 356
324 323 327 331 332 333 332 322 318 308 307 310 306 303 303 301 306 315 316 310 306 295 318 326 326 329 341 355 349 341 348 360 311 289 254 242 234 330 327 353 3 358 322
321 324 323 323 324 322 322 324 326 321 330 330 325 321 311 310 316 315 313 312 312 311 325 292 293 298 302 312 316 325 331 320 307 285 237 235 242 245 296 342 12 334 304
306 308 310 314 316 317 319 321 324 332 335 336 335 333 329 324 323 322 321 318 323 346 350 294 289 290 292 293 286 281 286 299 311 294 266 251 248 254 252 274 287 293 295
296 293 296 303 307 309 310 310 311 315 321 325 332 336 338 335 332 332 336 344 348 2 332 288 280 280 284 289 289 285 287 293 290 273 272 263 244 236 244 244 242 239 270
290 290 296 299 299 300 303 306 309 306 306 312 320 328 337 338 342 348 354 357 330 320 308 295 286 279 279 279 281 289 292 290 286 285 274 267 257 240 246 247 251 252 259
286 292 302 302 302 305 305 305 306 304 306 311 313 317 329 342 342 339 344 333 317 305 303 301 299 292 287 287 287 278 276 276 271 266 267 266 258 243 242 242 241 245 253
288 297 303 304 296 297 300 297 295 297 299 302 303 313 330 331 321 322 324 321 311 301 298 298 299 304 302 296 287 275 266 269 262 256 259 263 260 259 253 244 243 244 250
282 286 290 288 290 294 297 295 295 295 297 301 308 315 324 330 317 314 315 313 310 304 298 295 297 297 292 290 285 274 265 262 260 254 255 255 252 253 255 253 252 249 233
284 290 297 296 293 298 301 299 298 298 299 302 306 312 316 313 309 309 309 311 314 312 310 301 295 300 302 294 277 261 262 264 256 240 242 247 245 242 241 243 243 240 237
279 281 284 290 294 292 292 295 294 293 295 297 299 302 303 303 303 306 308 311 311 309 308 303 293 292 296 297 291 278 269 270 263 242 228 232 241 244 240 239 241 233 231
272 276 279 280 284 286 289 290 291 292 292 292 294 296 299 300 301 303 305 307 307 306 305 302 298 294 290 286 285 283 283 283 273 250 230 228 235 238 235 236 236 235 233
271 277 280 282 282 283 283 286 289 292 293 293 291 289 290 292 295 298 301 305 307 306 305 303 298 293 290 288 284 285 282 277 262 243 222 217 224 233 232 237 233 229 228